Terug naar catalogus

COSMOS 1375 DEB

ActiefLEO
NORAD 16377·DEBRIS·🇷🇺 Russia

Gelanceerd Jun 6, 1982 vanaf Plesetsk Cosmodrome

Loading…

Volgende Passages (komende 24 uur)

TLE

VersSource: Space-Track

Epoch: Sep 14, 2026, 01:17 UTC

1 16377U 82055R   26257.05370586  .00000741  00000-0  49257-3 0  9992
2 16377  65.8210 129.4834 0040085 331.1362 148.4131 14.06932476 79522

Volg COSMOS 1375 DEB in realtime met AllMySat

Download on the App Store